Location: Strawberry
(45.6646°N, 111.9596°W)
Time: 13:19:52
(UTC+00:00)

Tiangong - Pass Details

Date: 19 August 2022
Orbit: 377 x 382 km, 41.5° (Epoch: 27 September)

Event Time Altitude Azimuth Distance (km) Brightness Sun altitude
Rises 03:32:07 0° 244° (WSW) 2,234 2.2 -10.6°
Reaches altitude 10° 03:34:18 10° 233° (SW) 1,383 1.0 -10.9°
Maximum altitude 03:37:07 31° 169° (S) 690 -1.2 -11.3°
Enters shadow 03:38:34 20° 122° (ESE) 930 -0.9 -11.5°
